Other Public Products
Issued by NWS Grand Forks, ND

Home | Current Version | Previous Version | Text Only | Print | Product List | Glossary Off
Versions: 1 2 3 4 5 6 7 8 9 10 11 12 13 14 15 16 17 18 19 20 21 22 23 24 25 26 27 28 29 30 31 32 33 34 35 36 37 38 39 40 41 42 43 44 45 46 47 48 49 50

000
FPUS83 KFGF 271710
OPUFGF
PRAIRIE TO PINES WEATHER ROUNDUP
NATIONAL WEATHER SERVICE EASTERN NORTH DAKOTA/GRAND FORKS ND
1200 PM CDT SAT AUG 27 2016

 **SATELLITE DATA USED TO AUGMENT SKY COVER AT AUTOMATED STATIONS**
 *****  WEATHER ACROSS EASTERN NORTH DAKOTA  *****

CITY           SKY/WX    TMP DP  RH WIND       PRES   REMARKS
GRAND FORKS    CLOUDY    63  58  83 S15       29.93F
GRAND FORKS AF CLOUDY    63  60  87 S10       29.93F
GRAND CITY NWS   N/A     59 N/A N/A SE14        N/A
BUXTON           N/A     60  60  99 SE6         N/A
DEVILS LAKE    NOT AVBL
FARGO          CLOUDY    69  62  78 S14       29.94F
WAHPETON ARPT  CLOUDY    70  55  60 S16G23    29.97F
$$

 *****  WEATHER ACROSS CENTRAL AND WESTERN NORTH DAKOTA  *****

CITY           SKY/WX    TMP DP  RH WIND       PRES   REMARKS
JAMESTOWN      PTSUNNY   70  61  73 S7        29.93F
BISMARCK       SUNNY     71  51  49 VRB3      29.94S
MINOT          SUNNY     70  50  49 S7        29.90F
MINOT AFB      SUNNY     69  48  48 NE3       29.88F
GARRISON         N/A     69  50  50 SW8       29.91F
WILLISTON      SUNNY     70  47  43 VRB5      29.90F
DICKINSON      SUNNY     67  45  45 CALM      29.91F
HETTINGER      SUNNY     71  52  50 S9        29.95F
$$

 *****  OTHER OBSERVATIONS NORTHEAST NORTH DAKOTA  *****

CITY           SKY/WX    TMP DP  RH WIND       PRES   REMARKS
WALHALLA       NOT AVBL
LANGDON        CLOUDY    68  57  68 SW9       29.92F
CAVALIER       PTSUNNY   66  57  72 S12G18    29.91F
GRAFTON        FAIR      66  61  82 S12       29.94F
CANDO          NOT AVBL
FORT TOTTEN      N/A     69  56  63 S5        29.95S
ROLLA          FAIR      64  54  68 SW6       29.92S
RUGBY          FAIR      68  54  60 S5        29.91S
 ***** THE ABOVE OBSERVATIONS ARE NON NWS ARE NOT QUALITY
        CONTROLLED AND MAY MIS-REPORT RAIN FOR SNOW...
$$

 *****  OTHER OBSERVATIONS SOUTHEAST NORTH DAKOTA *****

CITY           SKY/WX    TMP DP  RH WIND       PRES   REMARKS
COOPERSTOWN    NOT AVBL
VALLEY CITY    CLOUDY    66  64  94 SW9       29.97S
OAKES            N/A    N/A N/A N/A MISG        N/A
GWINNER        CLOUDY    68  63  83 SW10G20   29.97F
SHEYENNE NWR     N/A     70  63  78 S8        29.95
BUFFALO          N/A     65  62  90 S8          N/A
WYNDMERE       NOT AVBL
 ***** THE ABOVE OBSERVATIONS ARE NON NWS ARE NOT QUALITY
       CONTROLLED AND MAY MIS-REPORT RAIN FOR SNOW...
$$

  *****  WEATHER ACROSS NORTHERN MINNESOTA  *****

CITY           SKY/WX    TMP DP  RH WIND       PRES   REMARKS
FLAG ISLAND    RAIN      63  61  94 S6        29.97S
WARROAD        RAIN      59  55  88 S10       29.98F
ROSEAU         RAIN      59  54  82 S13       29.96S
HALLOCK        CLOUDY    63  59  88 S12       29.93F
THF RVR FALLS  RAIN      58  57  97 SE14      29.98F
HALSTAD          N/A     59  59 100 SE9         N/A
FOSSTON        HVY RAIN  55  54  94 CALM      30.02F
BAUDETTE       HVY RAIN  60  58  92 SW6       30.01S VSB 1
WASKISH        CLOUDY    66  57  72 SW6       30.01S
CROOKSTON      LGT RAIN  57  57 100 SE9       29.96F
$$
  *****  WEATHER ACROSS CENTRAL AND WEST MINNESOTA  *****

CITY           SKY/WX    TMP DP  RH WIND       PRES   REMARKS
BEMIDJI        LGT RAIN  63  57  82 SE8       30.01F
PARK RAPIDS    CLOUDY    65  56  72 SE13      30.00F
WADENA         CLOUDY    66  59  77 CALM      30.01F
DETROIT LAKES  MOSUNNY   68  57  68 S12       30.00S
MOORHEAD       PTSUNNY   70  61  73 S14       29.95F
FERGUS FALLS   CLOUDY    70  57  64 S17       30.01S
ELBOW LAKE     PTSUNNY   68  58  68 S14       30.01F
MORRIS MN      PTSUNNY   72  59  64 S13G18    29.99F
STAPLES        CLOUDY    66  55  68 S9        30.03S
WHEATON        MOSUNNY   73  63  68 S10G16    30.00F
$$
  *****  WEATHER ELSEWHERE ACROSS MINNESOTA  *****

CITY           SKY/WX    TMP DP  RH WIND       PRES   REMARKS
DULUTH         CLOUDY    62  58  86 E6        30.06F
INTRNTL FALLS  CLOUDY    70  56  61 S8        30.01F
ELY            PTSUNNY   66  52  59 S7        30.07F
CLOQUET        DRIZZLE   61  57  88 SE3       30.06F
BRAINERD       CLOUDY    68  58  70 S10       30.03F
HIBBING        CLOUDY    64  54  69 S8        30.05F
ALEXANDRIA     CLOUDY    67  56  67 S12       30.03F
SAINT CLOUD    CLOUDY    66  60  81 SE8       30.01F
MINNEAPOLIS    CLOUDY    67  60  78 E10       30.02F
$$

  *****  WEATHER ACROSS SOUTH DAKOTA  *****

CITY           SKY/WX    TMP DP  RH WIND       PRES   REMARKS
SIOUX FALLS    CLOUDY    67  62  84 SW3       30.01F
BROOKINGS      CLOUDY    64  59  83 SE3       30.01F
WATERTOWN      CLOUDY    67  58  72 S9        29.99F
HURON          CLOUDY    69  61  75 SE9       29.97F
SISSETON         N/A     72  59  63 S14G20    29.96F
ABERDEEN       CLOUDY    68  60  75 S13       29.96F
MITCHELL       MOSUNNY   72  61  68 S7        29.98F
PIERRE         SUNNY     72  55  55 VRB5      29.94F
MOBRIDGE       SUNNY     72  57  59 VRB7      29.92F
RAPID CITY     SUNNY     70  55  59 S12       29.97F
$$

  *****  SOME WEATHER IN NEARBY STATES *****

CITY           SKY/WX    TMP DP  RH WIND       PRES   REMARKS
GLASGOW MT     MOSUNNY   70  46  42 SE17      29.81F
GREAT FALLS MT MOSUNNY   76  35  22 SW23G29   29.81F
CHEYENNE WY    SUNNY     74  31  20 NW10      30.15F
SCOTTSBLUFF NE SUNNY     69  56  62 SE6       30.05F
OMAHA NE       PTSUNNY   76  66  71 S5        30.01F
DES MOINES IA  PTSUNNY   71  66  84 SW3       30.02F
DAVENPORT IA   PTSUNNY   78  69  73 W9        30.02S
CHICAGO IL     CLOUDY    75  71  87 S9        30.05S
EAU CLAIRE WI  CLOUDY    67  58  72 SE7       30.04F
LA CROSSE WI   CLOUDY    67  62  84 SE6       30.03F
$$

  *****  SOME NATIONAL WEATHER *****

CITY           SKY/WX    TMP DP  RH WIND       PRES   REMARKS
LA GUARDIA NY  MOSUNNY   87  62  43 NE10      30.18S
RALEIGH NC     MOSUNNY   94  70  45 E9        30.12F HX 100
ATLANTA GA     PTSUNNY   88  71  57 E10       30.12F HX  94
NEW ORLEANS LA CLOUDY    86  77  74 E7        29.99S HX  97
OKLAHOMA CITY  PTSUNNY   84  70  62 SE5       30.05F
ALBUQUERQUE NM MOSUNNY   74  51  44 VRB5      30.21F
SALT LAKE CITY MOSUNNY   79  40  24 S15       30.07S
LOS ANGELES CA CLOUDY    69  56  62 VRB5      30.01R
BOISE ID       SUNNY     76  32  20 SE7       29.95S
SEATTLE WA     CLOUDY    63  55  75 S9        29.87R
$$

*** WEATHER ACROSS MANITOBA...SASKATCHEWAN AND ONTARIO ***
                ***ONTARIO***

CITY           SKY/WX    TMP DP  RH WIND       PRES   REMARKS
GERALDTON      MOSUNNY   68  54  60 S9        30.10F
THUNDER BAY    PTSUNNY   68  55  64 S5        30.09F
SIOUX LOOKOUT  MOSUNNY   68  55  64 S6        30.02F
TORONTO        PTSUNNY   77  61  57 SE8       30.19F
BIG TROUT LK   SUNNY     64  55  72 S3        29.94F
PICKLE LAKE    PTSUNNY   66  57  72 W3        30.01S
DRYDEN         CLOUDY    68  54  60 S10       30.01F
KENORA         PTSUNNY   66  57  72 S10       29.98F
$$
                *** MANITOBA***

CITY           SKY/WX    TMP DP  RH WIND       PRES   REMARKS
BRANDON        MOSUNNY   66  54  63 W6        29.87F
DAUPHIN        MOSUNNY   68  57  68 SW9       29.83F
ISLAND LAKE    PTSUNNY   66  59  77 SE5       29.86F
PILOT MOUND      N/A     66  54  63 SW6         N/A
THE PAS        CLOUDY    59  55  88 N5        29.81S
THOMPSON       PTSUNNY   63  54  72 NE6       29.84S
WINNIPEG       PTSUNNY   66  57  72 S14       29.89F
LYNN LAKE      SUNNY     64  41  42 MISG      29.82F
CHURCHILL      PTSUNNY   63  48  59 S13G22    29.85F
GILLAM         CLOUDY    57  54  88 CALM      29.87S
$$
                ***SASKATCHEWAN***

CITY           SKY/WX    TMP DP  RH WIND       PRES   REMARKS
ESTEVAN        MOSUNNY   70  48  46 S8        29.89F
KINDERSLEY     MOSUNNY   66  50  55 S15G22    29.65F
LLOYDMINSTER   CLOUDY    61  50  67 SE15      29.62F
PRINCE ALBERT  PTSUNNY   59  55  88 SE7       29.78F
REGINA         MOSUNNY   68  48  49 S10       29.83F
YORKTON        PTSUNNY   61  54  77 NW5       29.85S  C1F1C2F2C3F3C4F4C5F5C6F6C7F7C8F8C9F9CaFaCbFbCcFcCdFdCe!


USA.gov is the U.S. government's official web portal to all federal, state and local government web resources and services.